Regional Weather Roundup
Issued by NWS

Home | Current Version | Previous Version | Graphics & Text | Print | Product List | Glossary Off
Versions: 1 2 3 4 5 6 7 8 9 10 11 12 13 14 15 16 17 18 19 20 21 22 23 24 25 26 27 28 29 30 31 32 33 34 35 36 37 38 39 40 41 42 43 44 45 46 47 48 49 50

000
ASUS43 KDMX 132203
RWRIA

WEATHER ROUNDUP FOR IOWA
NATIONAL WEATHER SERVICE DES MOINES IA
400 PM CST SAT FEB 13 2016

NOTE: "FAIR" INDICATES FEW OR NO CLOUDS BELOW 12,000 FEET WITH NO
SIGNIFICANT WEATHER AND/OR OBSTRUCTIONS TO VISIBILITY.

* - THESE STATIONS ARE NOT NWS STATIONS...THUS NOT UNDER NWS
QUALITY CONTROL.  THEY ALSO DO NOT REPORT WEATHER SUCH
AS PRECIPITATION OR FOG.

IAZ001>003-012>014-020>022-031>034-043>046-132300-
   NORTHWEST IOWA

CITY           SKY/WX    TMP DP  RH WIND       PRES   REMARKS
CARROLL *      CLOUDY    12   5  73 SE15      30.38F WCI  -4
CHEROKEE *     CLOUDY    10   1  67 SE9       30.37F WCI  -2
DENISON *      CLOUDY    12   5  73 SE12G17   30.34F WCI  -2
LE MARS *      CLOUDY    12   5  73 SE16      30.35F WCI  -4
ORANGE CITY *  CLOUDY     9   3  78 SE8       30.31F WCI  -4
SHELDON *      CLOUDY     9   1  72 SE16      30.31F WCI  -9
SIOUX CITY     CLOUDY    15   3  59 SE15      30.34F WCI   0
SPENCER        CLOUDY     7  -2  66 SE18      30.36F WCI -12
STORM LAKE *   CLOUDY     9   1  72 SE13      30.35F WCI  -7
$$

IAZ055>058-069>071-079>083-090>094-132300-
   SOUTHWEST IOWA

CITY           SKY/WX    TMP DP  RH WIND       PRES   REMARKS
ATLANTIC *     MOSUNNY   16   1  53 SE9       30.37F WCI   4
AUDUBON *      CLOUDY    14   3  62 SE13      30.37F WCI   0
CLARINDA *     CLOUDY    19   0  42 E8G15     30.41F WCI   9
COUNCIL BLFS * CLOUDY    18   3  53 SE15      30.34F WCI   3
CRESTON *      CLOUDY    16   0  48 SE12      30.40F WCI   3
HARLAN  *      CLOUDY    16   5  62 SE14      30.39F WCI   1
LAMONI         CLOUDY    16  -1  47 E9        30.41F WCI   4
RED OAK *      CLOUDY    18   0  45 SE10G16   30.38F WCI   6
SHENANDOAH *   CLOUDY    19   1  45 SE15      30.39F WCI   5
$$

IAZ047>049-059>061-072>074-084-132300-
   CENTRAL IOWA

CITY           SKY/WX    TMP DP  RH WIND       PRES   REMARKS
AMES           CLOUDY    12   1  61 SE12      30.46F WCI  -2
ANKENY *       CLOUDY    14   0  52 SE10      30.47F WCI   1
BOONE *        CLOUDY    12   1  62 SE14      30.42F WCI  -3
CHARITON *     CLOUDY    16   1  53 E13       30.44F WCI   2
DES MOINES     CLOUDY    14  -2  49 SE10      30.46F WCI   1
GRINNELL*      CLOUDY    15   2  56 SE9       30.47F WCI   3
KNOXVILLE *    CLOUDY    14  -2  48 SE12      30.46F WCI   0
MARSHALLTOWN   CLOUDY    12   0  58 S7        30.46F WCI   1
NEWTON *       CLOUDY    14   1  57 SE9       30.47F WCI   2
PELLA *        MOSUNNY   16   3  57 SE8       30.50F WCI   5
$$

IAZ004>006-015-016-023>025-035-036-132300-
   NORTH CENTRAL IOWA

CITY           SKY/WX    TMP DP  RH WIND       PRES   REMARKS
ALGONA *       CLOUDY     9   1  72 S12       30.40F WCI  -6
CLARION *      CLOUDY     9  -2  61 SE13      30.43F WCI  -7
ESTHERVILLE    CLOUDY     8   0  69 S16       30.38F WCI -10
FORT DODGE *   CLOUDY    10   0  61 SE8       30.43F WCI  -1
MASON CITY     CLOUDY     5  -4  66 SE9       30.45F WCI  -9
FOREST CITY *  CLOUDY     9   0  66 SE10      30.42F WCI  -6
WEBSTER CITY * CLOUDY    10   1  67 SE13      30.41F WCI  -5
IOWA FALLS *   CLOUDY    11   1  64 SE9       30.45F HAZE    WCI  -2
$$

IAZ007>011-017>019-026>030-037>042-050>054-066-132300-
   NORTHEAST IOWA

CITY           SKY/WX    TMP DP  RH WIND       PRES   REMARKS
CEDAR RAPIDS   CLOUDY    16  -4  41 SE5       30.48F WCI   9
CHARLES CITY * CLOUDY     7  -8  51 SE6       30.46F WCI  -3
CLINTON *      MOSUNNY   19  -4  36 CALM      30.53F
DECORAH *      CLOUDY     9  -8  47 S7        30.45F WCI  -3
DUBUQUE        CLOUDY    12  -7  42 CALM      30.48F
MONTICELLO *   CLOUDY    14  -9  34 CALM      30.51F
OELWEIN *      MOSUNNY    7  -8  51 CALM      30.48F
WATERLOO       CLOUDY     8  -5  55 E8        30.49F WCI  -4
$$

IAZ064-065-067-068-078-132300-
   EAST CENTRAL IOWA

CITY           SKY/WX    TMP DP  RH WIND       PRES   REMARKS
DAVENPORT      CLOUDY    17  -8  32 CALM      30.52F
IOWA CITY      CLOUDY    18  -5  36 SE8       30.53F WCI   8
MT. PLEASANT * CLOUDY    21   0  39 CALM      30.52F
MUSCATINE *    CLOUDY    19  -6  32 E5        30.54F WCI  13
QUAD CITIES    MOSUNNY   18  -7  32 S3        30.53F
$$

IAZ062-063-075>077-085>089-095>099-132300-
   SOUTHEAST IOWA

CITY           SKY/WX    TMP DP  RH WIND       PRES   REMARKS
BURLINGTON     PTSUNNY   19  -1  41 SE5       30.52F WCI  12
FAIRFIELD *    CLOUDY    18  -2  41 E7        30.50F WCI   8
FORT MADISON * CLOUDY    19  -2  38 CALM      30.52F
KEOKUK *       CLOUDY    19   0  42 CALM      30.52F
OSKALOOSA *    CLOUDY    16   3  57 SE7       30.49F WCI   6
OTTUMWA        CLOUDY    16   2  54 SE9       30.49F WCI   4
WASHINGTON *   CLOUDY    18  -2  41 SE6       30.52F WCI   9
$$

ABBREVIATIONS USED IN REMARKS
   TC - TEMPERATURES IN CELSIUS
  WCI - WIND CHILL INDEX
   HX - HEAT INDEX
  VSB - VISIBILITY
$$




USA.gov is the U.S. government's official web portal to all federal, state and local government web resources and services.